Terug naar catalogus

STARLINK-32489

ActiefCommunicatieVLEO
NORAD 61893·PAYLOAD·🇺🇸 United States

Gelanceerd Nov 9, 2024 vanaf Vandenberg Space Force Base

Loading…

Volgende Passages (komende 24 uur)

TLE

VersSource: CelesTrak SupGP

Epoch: Sep 14, 2026, 22:42 UTC

1 61893C 24204V   26257.94631944  .00020802  00000+0  61502-3 0  2576
2 61893  53.1590 323.6049 0001255  91.9665 339.6298 15.34359143    17

Volg STARLINK-32489 in realtime met AllMySat

Download on the App Store